Bat Cave, NC

7:02 PM EST on February 14, 2016 (GMT -0500)
Asheville Regional

Weather History for KAVL - January, 2008

Change the Weather History Date:

Tuesday, January 8, 2008

  Actual Average Record
Temperature  
Mean Temperature 56 °F 37 °F  
Max Temperature 61 °F 47 °F 68 °F (1946)
Min Temperature 51 °F 27 °F -1 °F (1970)
Degree Days  
Heating Degree Days 9 28  
Month to date heating degree days 225 224  
Since 1 July heating degree days 1683 1885  
Cooling Degree Days 0 0  
Month to date cooling degree days 0 0  
Year to date cooling degree days 0 0  
Growing Degree Days 6 (Base 50)    
Moisture  
Dew Point 51 °F    
Average Humidity 81    
Maximum Humidity 93    
Minimum Humidity 69    
Precipitation  
Precipitation 0.01 in 0.11 in 3.62 in (1935)
Month to date precipitation 0.03 0.89  
Year to date precipitation 0.03 0.89  
Snow  
Snow 0.00 in 0.10 in 5.00 in (1944)
Month to date snowfall 0.7 0.9  
Since 1 July snowfall 0.8 1.9  
Snow Depth -    
Sea Level Pressure  
Sea Level Pressure 30.19 in    
Wind  
Wind Speed 9 mph (South)    
Max Wind Speed 22 mph    
Max Gust Speed 26 mph    
Visibility 10 miles    
Events Rain    
T = Trace of Precipitation, MM = Missing Value Source: NWS Daily Summary

Daily Weather History Graph

Daily Weather History Graph

Search for Another Location

Airport or City:

Trip Planner

Search our weather history database for the weather conditions in past years. The results will help you decide how hot, cold, wet, or windy it might be!

Date:

Astronomy

Jan. 08, 2008 Rise Set
Actual Time 7:39 AM EST 5:33 PM EST
Civil Twilight 7:11 AM EST 6:01 PM EST
Nautical Twilight 6:40 AM EST 6:33 PM EST
Astronomical Twilight 6:09 AM EST 7:04 PM EST
Moon 8:01 AM EST (1/8) 5:45 PM EST (1/8)
Length of Visible Light 10h 49m
Length of Day
9h 53m
New Moon, 0% of the Moon is Illuminated
Jan 8
New Moon
Jan 15
First Quarter
Jan 22
Full
Jan 30
Last Quarter
Feb 6
New

Hourly Weather History & Observations

Time (EST) Temp. Dew Point Humidity Pressure Visibility Wind Dir Wind Speed Gust Speed Precip Events Conditions
12:54 AM 53.1 °F 48.9 °F 86% 30.27 in 10.0 mi Calm Calm - N/A   Overcast
1:54 AM 51.1 °F 48.0 °F 89% 30.26 in 10.0 mi Calm Calm - N/A   Overcast
2:32 AM 53.6 °F 48.2 °F 82% 30.29 in 10.0 mi SSE 6.9 mph - N/A   Overcast
2:54 AM 53.1 °F 48.9 °F 86% 30.25 in 10.0 mi Variable 6.9 mph - N/A   Overcast
3:54 AM 52.0 °F 48.9 °F 89% 30.23 in 10.0 mi Calm Calm - N/A   Partly Cloudy
4:07 AM 51.8 °F 48.2 °F 88% 30.26 in 10.0 mi SE 4.6 mph - N/A   Mostly Cloudy
4:54 AM 52.0 °F 48.9 °F 89% 30.22 in 10.0 mi SE 5.8 mph - N/A   Overcast
5:54 AM 52.0 °F 48.9 °F 89% 30.24 in 10.0 mi Calm Calm - N/A   Overcast
6:54 AM 53.1 °F 50.0 °F 89% 30.23 in 10.0 mi SSE 4.6 mph - N/A   Overcast
7:37 AM 55.4 °F 51.8 °F 88% 30.27 in 10.0 mi South 9.2 mph 17.3 mph N/A   Overcast
7:54 AM 55.0 °F 52.0 °F 89% 30.25 in 10.0 mi South 12.7 mph 18.4 mph N/A   Overcast
8:35 AM 55.4 °F 51.8 °F 88% 30.29 in 10.0 mi South 10.4 mph - N/A   Overcast
8:54 AM 55.9 °F 52.0 °F 87% 30.27 in 9.0 mi South 9.2 mph - N/A   Overcast
9:54 AM 55.9 °F 53.1 °F 90% 30.28 in 9.0 mi South 10.4 mph 19.6 mph 0.01 in Rain Light Rain
10:54 AM 57.0 °F 54.0 °F 89% 30.27 in 10.0 mi South 11.5 mph - 0.00 in   Mostly Cloudy
11:54 AM 57.9 °F 53.1 °F 84% 30.24 in 10.0 mi SSW 16.1 mph 21.9 mph N/A   Overcast
12:54 PM 60.1 °F 52.0 °F 75% 30.19 in 10.0 mi South 16.1 mph 23.0 mph N/A   Partly Cloudy
1:12 PM 60.8 °F 51.8 °F 72% 30.21 in 10.0 mi South 13.8 mph - N/A   Mostly Cloudy
1:54 PM 60.1 °F 50.0 °F 69% 30.16 in 10.0 mi South 18.4 mph - N/A   Mostly Cloudy
2:01 PM 60.8 °F 50.0 °F 68% 30.19 in 10.0 mi South 19.6 mph - N/A   Partly Cloudy
2:54 PM 59.0 °F 51.1 °F 75% 30.14 in 10.0 mi South 15.0 mph - N/A   Overcast
3:17 PM 59.0 °F 51.8 °F 77% 30.18 in 10.0 mi South 12.7 mph - N/A   Overcast
3:54 PM 59.0 °F 51.1 °F 75% 30.14 in 10.0 mi South 13.8 mph - N/A   Overcast
4:54 PM 57.9 °F 52.0 °F 81% 30.14 in 10.0 mi South 11.5 mph - N/A   Overcast
5:54 PM 57.9 °F 51.1 °F 78% 30.13 in 10.0 mi SSE 6.9 mph - N/A   Overcast
6:30 PM 55.4 °F 51.8 °F 88% 30.15 in 10.0 mi SSE 6.9 mph - N/A   Scattered Clouds
6:54 PM 55.0 °F 50.0 °F 83% 30.13 in 10.0 mi SSE 5.8 mph - N/A   Mostly Cloudy
7:54 PM 53.1 °F 51.1 °F 93% 30.12 in 10.0 mi SSE 4.6 mph - N/A   Mostly Cloudy
8:54 PM 54.0 °F 51.1 °F 90% 30.09 in 10.0 mi SSE 4.6 mph - N/A   Scattered Clouds
9:54 PM 55.0 °F 51.1 °F 86% 30.06 in 10.0 mi Calm Calm - N/A   Mostly Cloudy
10:54 PM 59.0 °F 53.1 °F 81% 30.04 in 10.0 mi South 17.3 mph 24.2 mph N/A   Mostly Cloudy
11:54 PM 60.1 °F 52.0 °F 75% 30.03 in 10.0 mi South 16.1 mph - N/A   Overcast